Location: B?jaj?g
(11.7167°N, 92.6667°E)
Time: 03:41:43
(UTC+00:00)

Meteor 1-12 Rocket - Pass Details

Date: 18 September 2020
Orbit: 854 x 927 km, 81.2° (Epoch: 18 October)

Event Time Altitude Azimuth Distance (km) Brightness Sun altitude
Rises 12:47:57 0° 179° (S) 3,564 7.4 -15.5°
Reaches altitude 10° 12:50:26 10° 177° (S) 2,618 6.7 -16.1°
Maximum altitude 12:56:23 69° 95° (E) 975 4.3 -17.5°
Drops below altitude 10° 13:02:16 10° 12° (NNE) 2,587 6.7 -19.0°
Sets 13:04:43 0° 10° (N) 3,518 7.4 -19.6°
